Temp
9 9 9 9 9 10 10 10 10 10 11 11 12 12 12 12 13 12 13 13 13 13 14 14 14 14 14 14 14 15 15 15 15 15 15 15 15 17 18 18 18 18 17 18 18 17 18
9 9 9 9 9 10 10 10 10 10 11 11 12 12 12 13 13 12 12 12 13 13 13 14 14 14 14 14 13 15 15 15 15 15 15 15 15 17 17 18 18 18 18 18 18 18 18
9 9 9 9 9 9 10 10 10 10 11 11 11 12 12 12 12 12 12 12 12 13 13 13 14 14 14 15 14 15 15 15 14 15 15 15 15 16 17 18 18 18 18 18 18 18 18
8 9 9 9 9 9 10 10 10 10 10 11 11 12 12 12 12 12 12 12 12 12 13 13 13 14 14 13 14 15 15 15 14 14 14 15 16 16 16 18 18 18 18 18 17 18 18
8 9 9 9 9 9 9 10 10 10 10 11 11 11 12 12 12 12 12 12 12 12 12 13 13 13 14 14 15 15 15 15 14 14 14 14 15 15 16 17 18 19 19 19 17 17 18
8 8 9 9 9 9 9 10 10 10 10 10 11 11 11 12 12 12 12 12 12 12 12 12 12 13 14 15 14 15 15 15 14 14 14 14 15 16 17 18 19 19 19 18 19 18 19
8 8 8 9 9 9 10 10 10 10 10 10 11 11 11 12 12 12 12 11 11 12 12 13 12 13 13 13 13 13 13 14 14 15 15 15 15 16 17 18 19 19 19 18 19 19 19
7 8 8 8 9 9 10 10 10 10 10 10 10 11 11 11 11 11 11 11 12 12 12 12 12 12 12 12 13 14 13 14 14 15 15 16 16 17 17 18 19 19 20 20 20 20 19
7 7 8 8 9 9 9 10 10 10 10 10 10 10 11 11 11 11 11 12 12 12 12 13 12 12 12 13 13 14 14 14 14 15 16 16 17 18 18 18 19 19 20 20 20 20 19
7 7 8 8 9 9 9 9 10 10 10 10 10 10 10 11 11 11 11 11 11 11 11 14 13 13 13 13 13 14 14 14 14 15 16 17 17 18 19 18 19 19 20 19 20 19 20
7 7 8 8 9 9 9 9 9 10 10 10 10 10 10 10 10 10 11 11 11 11 14 14 14 13 13 13 15 14 15 14 15 16 16 17 17 18 18 19 19 19 19 20 20 20 19
7 7 8 8 9 9 9 9 9 9 9 9 10 10 10 10 10 10 11 11 11 10 15 15 14 13 13 13 14 15 14 14 15 16 16 17 18 18 18 18 18 19 19 19 20 20 20
7 7 8 8 8 9 9 9 9 9 9 9 9 10 10 10 10 10 10 11 10 13 16 16 15 15 14 14 14 15 15 14 15 15 16 17 17 18 18 18 18 18 19 19 20 20 20
7 7 7 8 8 8 9 9 9 9 9 9 9 9 10 10 10 10 10 8 11 16 17 16 16 15 15 16 15 15 15 15 15 16 17 17 18 17 18 17 18 18 19 20 19 20 21
7 7 7 8 8 8 9 9 9 8 9 9 9 9 9 9 9 10 9 10 13 15 15 15 15 15 16 16 16 16 16 16 16 16 16 18 19 19 18 18 17 18 19 19 20 21 21
7 7 7 8 8 8 8 9 9 8 8 9 9 9 6 9 9 9 7 10 12 13 12 13 13 15 16 17 16 16 17 17 16 17 17 17 18 18 19 18 18 18 19 20 20 19 20
6 7 7 7 8 8 8 8 9 9 8 8 8 7 8 8 9 9 9 12 13 12 11 12 13 14 15 16 17 16 16 17 17 17 17 17 17 18 18 19 18 18 18 18 19 20 21
7 7 7 7 7 8 8 8 8 9 8 8 8 7 8 8 8 8 10 12 11 11 11 11 11 12 14 15 15 16 16 17 17 17 17 17 17 17 18 18 19 18 18 19 19 20 20
6 7 7 7 7 7 8 8 8 8 8 8 8 8 8 8 8 10 11 12 11 11 11 11 12 12 12 13 14 14 15 16 16 16 16 16 17 17 17 18 18 18 18 18 19 20 20
6 6 7 7 7 7 8 8 8 8 8 8 8 9 8 8 9 8 10 11 11 11 10 11 11 12 12 13 13 14 15 15 15 15 14 14 15 17 17 18 18 19 18 18 19 20 20
6 6 7 7 7 7 8 8 8 8 8 8 8 8 8 9 10 10 10 10 10 11 11 11 11 11 11 12 13 13 14 15 15 14 14 14 15 16 17 17 18 18 19 19 18 19 20
6 6 7 7 7 7 7 7 7 8 7 7 7 6 7 7 9 9 10 10 10 10 11 11 11 11 12 12 12 13 14 13 12 11 12 13 14 15 16 16 17 17 18 19 19 18 19
6 6 6 7 7 7 7 7 7 7 7 7 7 7 7 7 8 10 10 10 10 10 10 10 11 10 11 12 12 12 11 11 10 11 10 12 12 13 15 16 16 17 17 18 19 19 19
6 6 6 6 6 7 7 7 7 7 7 7 7 7 6 6 8 9 9 9 9 9 9 9 10 10 10 10 10 10 11 11 11 11 11 11 9 11 14 15 16 16 17 18 18 18 19
5 6 6 6 6 6 6 7 7 7 7 7 7 7 6 6 6 7 8 9 8 8 8 8 9 9 9 9 9 10 10 11 11 12 12 12 11 11 14 15 12 12 17 17 17 18 18
5 5 5 6 6 6 6 6 6 6 6 7 7 7 7 7 7 6 6 6 7 8 8 9 9 9 9 9 9 10 11 12 12 11 11 9 9 11 12 10 11 13 15 16 17 17 18
5 5 5 5 6 6 6 6 6 6 6 6 6 6 6 7 8 6 6 6 7 7 8 8 9 9 9 9 10 10 11 10 9 9 9 10 11 11 12 12 11 13 14 15 16 17 18
5 5 5 5 5 5 5 6 5 5 6 6 6 6 6 7 7 7 7 8 7 6 6 7 7 8 9 10 10 10 11 8 8 8 8 6 8 8 8 11 11 12 12 13 15 16 17
5 5 5 5 5 5 5 5 5 5 5 5 5 6 6 6 8 7 8 8 8 7 7 6 6 8 8 9 9 10 9 7 6 7 9 7 7 6 4 10 11 12 11 12 14 15 16
Height
3145 3144 3142 3142 3141 3141 3140 3139 3138 3137 3137 3137 3137 3138 3139 3139 3140 3141 3142 3142 3143 3144 3145 3146 3148 3150 3152 3154 3156 3154 3157 3159 3161 3164 3165 3165 3170 3172 3170 3170 3170 3169 3168 3169 3169 3170 3168
3143 3142 3141 3141 3140 3140 3139 3138 3137 3137 3136 3136 3136 3137 3138 3138 3139 3140 3140 3141 3142 3143 3144 3145 3146 3148 3150 3153 3154 3154 3155 3158 3161 3163 3165 3166 3169 3171 3170 3170 3170 3170 3167 3167 3168 3168 3168
3141 3140 3140 3140 3139 3138 3137 3136 3136 3135 3135 3135 3135 3135 3136 3137 3138 3138 3138 3139 3140 3141 3142 3143 3145 3146 3147 3151 3150 3152 3154 3158 3160 3163 3165 3167 3170 3172 3171 3170 3169 3169 3168 3166 3165 3167 3166
3139 3139 3138 3138 3137 3137 3136 3135 3134 3134 3134 3134 3134 3134 3135 3136 3136 3137 3138 3138 3139 3140 3141 3141 3143 3144 3145 3147 3149 3150 3153 3156 3158 3161 3164 3168 3170 3170 3169 3169 3168 3168 3166 3163 3164 3167 3164
3137 3136 3136 3136 3135 3135 3134 3134 3133 3133 3132 3132 3132 3133 3133 3133 3135 3136 3137 3137 3138 3139 3140 3140 3142 3142 3144 3143 3146 3149 3152 3155 3158 3160 3162 3165 3165 3167 3169 3168 3167 3163 3160 3161 3162 3162 3162
3134 3134 3134 3134 3134 3134 3133 3132 3132 3131 3131 3131 3131 3132 3131 3132 3133 3134 3136 3137 3137 3137 3138 3139 3140 3144 3143 3143 3145 3147 3151 3153 3158 3161 3163 3163 3165 3166 3166 3164 3162 3163 3160 3159 3160 3161 3162
3133 3132 3132 3132 3132 3132 3131 3131 3131 3130 3130 3130 3130 3131 3131 3131 3132 3133 3135 3136 3139 3138 3135 3138 3140 3141 3142 3144 3143 3144 3149 3151 3155 3159 3159 3162 3164 3162 3162 3162 3160 3160 3159 3162 3158 3159 3160
3131 3131 3130 3130 3130 3130 3129 3129 3129 3129 3129 3129 3129 3129 3129 3130 3131 3132 3133 3135 3134 3135 3133 3133 3134 3137 3140 3139 3142 3141 3146 3150 3152 3154 3158 3160 3157 3160 3161 3160 3159 3157 3156 3157 3158 3158 3158
3130 3129 3129 3128 3128 3128 3127 3127 3127 3127 3127 3127 3127 3127 3128 3128 3129 3130 3131 3132 3133 3133 3132 3131 3130 3133 3136 3137 3138 3142 3144 3146 3149 3153 3154 3154 3155 3157 3158 3158 3157 3155 3154 3154 3155 3154 3156
3129 3128 3127 3127 3126 3126 3125 3125 3125 3125 3125 3125 3125 3125 3126 3127 3130 3129 3129 3130 3132 3133 3132 3130 3130 3130 3133 3137 3135 3137 3142 3146 3148 3149 3152 3152 3153 3152 3153 3154 3155 3153 3152 3154 3153 3156 3153
3128 3127 3126 3126 3125 3124 3124 3124 3124 3124 3123 3123 3124 3124 3124 3125 3127 3127 3128 3130 3131 3133 3131 3127 3129 3127 3130 3131 3136 3135 3140 3142 3144 3146 3150 3148 3149 3150 3150 3151 3152 3151 3151 3151 3151 3151 3151
3128 3126 3126 3125 3124 3123 3122 3122 3122 3121 3122 3122 3122 3122 3123 3124 3124 3126 3127 3129 3132 3137 3127 3126 3126 3124 3128 3129 3133 3136 3137 3140 3143 3144 3144 3144 3145 3146 3147 3148 3150 3150 3150 3148 3148 3147 3145
3128 3127 3125 3124 3122 3121 3121 3120 3120 3120 3120 3121 3120 3121 3121 3122 3123 3124 3126 3129 3135 3129 3124 3123 3124 3125 3127 3128 3131 3134 3135 3136 3138 3141 3140 3141 3141 3142 3144 3145 3146 3148 3148 3146 3144 3141 3139
3128 3127 3125 3124 3122 3121 3120 3119 3119 3119 3119 3119 3119 3119 3120 3121 3122 3124 3126 3131 3131 3121 3122 3121 3123 3124 3125 3126 3127 3130 3132 3133 3135 3136 3135 3135 3135 3137 3140 3141 3143 3143 3144 3141 3140 3136 3131
3128 3127 3125 3124 3122 3120 3119 3119 3118 3118 3118 3118 3118 3118 3119 3120 3121 3123 3126 3129 3125 3123 3121 3122 3123 3124 3123 3124 3126 3125 3127 3129 3130 3133 3133 3130 3129 3128 3130 3136 3140 3139 3137 3140 3137 3132 3128
3129 3127 3126 3124 3123 3122 3120 3119 3118 3118 3118 3118 3118 3118 3121 3120 3121 3122 3125 3124 3124 3123 3123 3124 3125 3121 3119 3118 3122 3123 3122 3124 3126 3127 3129 3129 3127 3126 3126 3128 3133 3134 3136 3136 3135 3133 3129
3129 3128 3127 3125 3124 3122 3121 3119 3118 3118 3118 3118 3119 3120 3121 3121 3121 3122 3124 3124 3123 3122 3123 3124 3124 3121 3120 3116 3116 3118 3120 3121 3121 3122 3124 3125 3126 3126 3125 3123 3127 3131 3131 3131 3130 3129 3127
3129 3128 3127 3125 3124 3122 3121 3120 3119 3118 3118 3119 3119 3123 3121 3122 3123 3123 3123 3123 3120 3122 3122 3121 3121 3121 3120 3118 3117 3118 3117 3116 3118 3118 3120 3121 3123 3121 3120 3121 3122 3124 3124 3127 3127 3126 3122
3129 3128 3126 3125 3124 3123 3121 3120 3119 3119 3118 3119 3119 3124 3120 3121 3122 3122 3122 3121 3120 3119 3119 3120 3119 3120 3120 3119 3119 3117 3115 3116 3115 3116 3118 3119 3117 3119 3118 3118 3117 3118 3121 3121 3122 3121 3118
3130 3128 3127 3125 3124 3123 3122 3121 3120 3119 3119 3119 3120 3124 3121 3118 3119 3119 3119 3119 3118 3117 3116 3116 3116 3117 3117 3116 3116 3115 3113 3113 3114 3116 3116 3115 3114 3112 3112 3112 3111 3112 3114 3117 3117 3115 3116
3131 3129 3127 3126 3125 3123 3122 3121 3120 3119 3118 3119 3119 3122 3122 3120 3120 3120 3119 3118 3116 3115 3115 3114 3114 3114 3114 3114 3113 3112 3112 3111 3110 3105 3111 3114 3113 3112 3109 3108 3108 3106 3105 3108 3111 3112 3112
3132 3130 3128 3126 3125 3123 3122 3120 3119 3119 3118 3119 3119 3117 3116 3116 3117 3117 3116 3115 3114 3113 3113 3112 3111 3111 3110 3110 3111 3109 3109 3109 3104 3108 3112 3110 3109 3110 3107 3106 3104 3102 3101 3100 3102 3106 3107
3132 3130 3128 3126 3124 3122 3121 3119 3118 3117 3117 3116 3113 3114 3113 3113 3114 3115 3114 3112 3110 3110 3110 3108 3108 3107 3106 3107 3105 3105 3105 3105 3104 3106 3106 3108 3107 3105 3103 3103 3101 3094 3096 3096 3097 3098 3102
3133 3131 3129 3127 3124 3122 3120 3119 3117 3116 3114 3113 3112 3112 3111 3110 3112 3111 3110 3109 3108 3107 3105 3104 3103 3103 3103 3101 3099 3100 3102 3103 3102 3101 3103 3103 3107 3104 3098 3095 3086 3090 3093 3093 3093 3093 3095
3133 3131 3129 3127 3125 3122 3120 3118 3116 3114 3113 3111 3110 3109 3108 3106 3107 3107 3107 3105 3103 3102 3100 3098 3096 3095 3098 3099 3097 3098 3099 3098 3098 3098 3095 3097 3101 3097 3092 3087 3083 3082 3085 3089 3090 3089 3090
3133 3131 3129 3127 3125 3123 3120 3118 3115 3113 3111 3110 3108 3106 3104 3103 3104 3099 3099 3099 3098 3097 3096 3094 3094 3093 3094 3095 3094 3092 3091 3089 3089 3090 3091 3099 3098 3094 3089 3087 3085 3082 3079 3079 3085 3082 3087
3132 3130 3128 3126 3123 3121 3119 3117 3114 3112 3109 3107 3105 3103 3101 3098 3098 3096 3096 3094 3093 3092 3091 3090 3091 3091 3090 3090 3089 3087 3086 3083 3084 3085 3085 3083 3082 3082 3080 3079 3076 3074 3074 3075 3072 3076 3078
3130 3128 3126 3123 3121 3119 3116 3114 3112 3109 3107 3104 3101 3099 3097 3094 3092 3090 3089 3087 3086 3086 3085 3086 3088 3087 3086 3086 3087 3086 3083 3077 3081 3081 3081 3079 3074 3076 3078 3077 3072 3069 3077 3068 3064 3068 3071
3127 3125 3122 3120 3118 3115 3112 3110 3107 3105 3103 3100 3097 3094 3091 3088 3088 3084 3081 3079 3078 3078 3078 3078 3081 3081 3083 3082 3084 3083 3083 3075 3077 3077 3076 3075 3071 3075 3068 3074 3065 3067 3061 3060 3064 3068 3050
Wind_Speed
8 8 8 8 8 8 8 8 8 7 7 8 8 8 7 6 6 7 7 8 7 8 10 15 17 17 16 16 12 8 17 16 15 16 12 6 5 6 7 8 6 9 8 5 5 5 5
9 8 8 8 8 8 8 8 7 7 8 9 9 9 9 7 6 6 8 8 8 8 10 13 17 19 19 18 19 14 15 18 16 16 13 10 7 6 14 6 8 7 5 6 7 7 6
9 9 8 8 8 8 9 8 8 7 7 8 9 10 10 9 7 6 8 8 8 8 8 11 14 18 22 19 22 19 13 19 17 16 15 10 10 11 8 10 11 9 9 10 8 9 9
9 9 8 8 8 8 9 8 8 8 8 8 9 10 10 11 9 7 7 9 9 9 10 9 11 16 20 21 22 18 14 22 19 18 16 12 14 15 13 11 12 13 14 16 19 9 8
9 9 8 8 8 8 9 8 8 8 8 8 8 8 9 10 11 9 8 7 9 9 9 10 11 13 13 24 23 15 17 17 17 20 18 15 13 13 12 12 13 16 18 16 7 9 13
9 9 8 7 8 8 8 8 7 7 8 8 8 8 9 9 10 9 8 7 7 9 11 11 11 8 11 12 14 19 19 16 13 17 18 18 17 16 16 19 21 10 17 17 9 9 11
8 8 8 7 8 8 8 8 7 7 7 8 8 8 8 9 9 9 8 6 4 9 15 10 5 9 4 8 17 19 18 19 16 17 20 18 20 23 19 18 19 18 5 13 11 11 7
6 6 7 7 8 9 9 8 7 7 7 7 7 8 8 9 9 9 9 10 11 14 13 16 17 15 11 12 11 16 20 22 20 20 17 19 27 21 20 20 22 21 20 14 11 11 8
4 5 6 7 8 8 9 9 8 8 7 7 6 7 8 8 8 9 10 12 8 10 15 9 19 19 17 14 14 12 19 22 22 21 22 23 20 18 18 21 22 22 22 12 15 7 12
4 5 6 7 8 8 8 8 8 8 7 7 6 6 7 7 7 7 9 8 7 6 7 10 16 15 17 14 17 17 18 21 24 25 23 25 21 21 16 18 22 26 19 15 18 12 16
4 5 6 6 7 7 7 8 7 7 7 7 6 6 6 7 7 9 8 8 6 5 5 14 12 13 15 18 2 17 18 19 25 23 22 28 25 23 24 19 18 24 18 20 16 18 16
5 6 6 6 6 6 6 6 6 6 6 6 6 6 6 7 8 8 7 7 8 3 11 10 10 9 15 18 13 7 19 19 18 22 24 25 23 24 23 22 20 16 20 21 19 16 17
6 6 6 6 5 5 5 4 4 4 5 5 5 6 6 7 8 8 8 10 3 12 4 10 10 10 13 14 19 14 16 20 24 20 25 24 26 24 20 23 20 19 21 22 18 15 13
7 7 7 8 7 5 4 4 3 3 4 4 4 5 5 6 7 8 11 6 9 7 13 3 4 8 14 13 14 20 19 20 23 23 18 24 23 24 26 24 22 23 26 25 13 15 20
8 8 8 8 8 8 5 4 4 3 3 3 2 2 3 5 7 10 13 11 12 9 3 4 7 10 14 16 17 16 23 22 20 23 27 23 23 17 25 28 23 25 30 25 29 31 24
7 7 8 7 7 7 7 5 3 3 2 1 0 3 2 1 6 10 8 16 14 7 9 5 9 12 16 18 17 19 18 20 23 22 23 24 26 19 14 23 24 27 25 25 24 17 20
7 7 7 7 7 6 7 8 5 2 1 2 6 8 6 5 5 10 11 11 9 8 9 9 11 15 11 15 8 14 20 18 16 20 23 25 24 25 18 23 23 25 28 29 28 28 16
7 7 6 6 7 7 7 7 7 5 1 3 6 2 14 10 5 5 10 10 10 12 10 12 12 12 12 13 13 16 20 15 7 22 22 24 23 27 28 24 23 23 29 29 29 26 30
8 7 7 6 6 6 6 6 5 4 2 4 9 5 13 8 7 8 13 13 12 12 11 11 13 13 13 15 16 15 18 18 12 13 14 19 24 25 27 28 25 24 26 31 29 33 27
9 9 8 8 8 7 7 6 5 4 3 0 5 2 8 8 10 13 9 9 11 11 11 14 14 14 15 16 16 18 15 17 16 17 22 21 22 26 27 27 24 27 26 28 33 30 30
10 10 9 9 8 7 7 6 5 4 3 2 5 3 5 6 8 11 11 13 13 11 11 10 10 15 16 17 18 19 19 16 14 19 18 18 26 26 28 26 25 29 26 27 30 34 32
11 10 10 10 9 9 8 7 7 6 3 2 5 6 11 9 12 13 12 13 13 12 13 14 16 11 13 17 20 19 18 18 16 9 22 17 21 24 27 26 28 30 30 30 31 30 34
13 12 11 11 11 10 10 9 8 7 8 9 12 11 11 9 8 10 12 13 13 13 14 16 15 17 14 13 15 21 15 13 17 27 15 19 23 23 32 25 26 34 35 32 30 31 31
13 13 12 12 12 11 11 11 9 8 8 10 12 11 12 12 11 12 13 16 15 15 17 17 16 17 22 20 20 19 21 22 23 24 23 17 31 29 34 24 26 34 30 31 33 27 25
12 12 13 13 13 13 13 12 11 10 9 9 9 10 12 14 12 13 14 15 16 16 20 20 21 23 16 17 21 20 21 23 25 31 35 29 31 34 26 23 23 35 29 29 34 34 27
12 12 12 13 13 13 13 14 13 12 11 10 10 10 11 14 5 14 12 14 16 16 17 18 18 18 19 20 20 26 25 20 22 14 17 24 29 23 16 10 9 25 33 26 29 38 33
12 13 13 14 14 14 14 14 14 14 14 13 13 13 13 16 8 13 13 16 16 11 15 14 13 11 13 18 22 24 26 13 6 10 21 26 32 23 30 18 18 37 24 28 35 30 31
15 15 16 17 17 17 17 16 16 15 16 16 18 16 17 19 16 15 15 18 21 23 22 17 13 14 14 20 21 21 24 11 12 18 34 21 14 17 22 26 24 22 22 12 11 31 29
17 18 19 19 19 20 20 20 20 19 18 19 20 23 21 23 21 21 24 20 21 22 21 23 20 20 11 9 18 19 25 8 9 15 17 24 25 32 31 25 23 26 29 21 11 19 17
Wind_Direction
296 299 304 309 315 319 317 311 306 299 284 269 260 259 260 263 253 238 236 233 224 219 214 213 212 209 205 199 205 224 219 210 204 193 177 178 247 256 290 297 271 257 260 246 269 283 280
292 293 294 298 305 312 312 308 301 294 284 273 262 254 251 257 263 247 239 237 228 217 216 215 213 211 208 199 218 220 214 205 209 206 194 201 232 262 286 277 260 296 300 265 257 267 287
285 286 285 288 297 306 310 306 299 290 280 273 266 260 251 248 257 255 242 242 239 233 226 216 217 215 214 193 220 226 211 203 213 218 210 239 246 265 245 288 264 277 269 255 265 272 267
281 281 282 282 290 302 308 302 296 291 283 272 264 255 247 240 244 251 243 239 239 233 230 228 224 224 217 212 229 219 210 200 212 218 218 225 250 247 253 264 272 260 259 253 247 238 268
279 280 278 278 286 295 307 302 297 292 285 275 266 260 250 239 235 239 246 244 240 240 232 227 223 224 209 231 226 218 211 208 217 218 228 227 239 237 244 246 268 239 248 241 213 234 246
281 280 278 277 283 288 301 302 295 289 282 273 265 262 254 245 238 238 245 248 250 248 238 228 228 233 249 256 228 218 212 206 212 224 233 240 243 236 239 246 245 280 263 306 255 238 231
278 279 280 280 283 286 295 299 294 285 278 271 259 254 254 248 238 234 233 237 242 277 243 220 290 200 284 189 201 210 212 213 209 221 227 231 232 232 235 238 251 265 250 250 289 207 210
281 282 281 283 287 288 288 291 288 282 275 269 260 249 246 246 240 233 225 212 245 235 258 221 214 219 235 212 231 226 207 210 213 220 224 227 231 235 240 247 253 257 260 263 241 258 266
287 287 289 290 287 287 288 286 285 278 272 267 258 251 243 243 239 229 228 240 242 247 266 255 233 227 228 237 227 227 209 210 214 221 223 229 236 231 240 247 250 256 254 257 259 242 260
309 303 298 295 292 289 287 285 283 279 274 271 265 255 248 240 235 231 226 227 230 250 274 238 203 232 218 222 244 199 226 211 217 226 229 237 241 247 238 247 244 248 251 250 268 270 275
329 324 314 303 296 287 282 280 275 271 267 267 264 254 245 236 222 206 224 217 213 191 275 155 179 201 194 202 326 209 201 215 218 223 229 241 240 242 248 248 245 250 254 245 249 266 272
355 352 337 321 307 295 289 287 281 273 265 263 260 254 245 236 227 226 213 198 174 201 248 182 205 227 195 213 203 236 202 216 219 232 236 247 243 243 244 247 247 253 245 255 254 250 255
14 11 3 356 339 319 307 300 289 274 269 264 257 252 243 232 233 210 193 162 204 236 157 199 210 206 204 217 216 204 210 212 213 222 235 243 243 241 242 243 239 236 236 246 247 233 243
22 18 16 16 10 349 324 305 292 272 268 265 260 248 238 226 215 191 176 170 238 232 238 157 183 206 217 216 220 217 222 226 224 227 243 230 241 232 230 232 236 232 231 240 238 252 251
20 17 13 13 15 12 353 322 295 279 281 276 251 227 220 201 197 188 174 215 221 296 265 235 248 241 239 232 229 218 225 233 231 228 239 251 244 246 225 228 230 236 239 239 258 266 271
14 12 9 8 6 12 12 358 332 286 293 295 242 194 316 243 193 187 207 234 275 285 281 269 269 273 246 220 223 234 232 238 238 233 234 243 266 264 247 216 231 234 238 237 238 264 273
5 1 1 3 5 5 13 18 13 355 278 108 93 70 258 307 207 198 224 235 274 283 279 258 258 270 266 269 245 230 241 243 238 237 235 239 244 250 246 221 231 228 236 246 256 238 249
357 353 356 360 5 10 5 5 12 24 60 131 151 222 265 294 232 241 242 275 278 261 269 272 259 263 266 266 267 254 249 243 256 239 239 234 240 245 248 241 237 236 239 230 243 251 258
9 6 5 3 360 360 2 4 2 5 30 138 116 258 307 259 233 254 265 265 279 269 258 263 264 260 256 255 261 257 252 242 248 232 239 241 229 252 257 244 240 237 236 241 238 245 249
17 14 12 9 7 1 358 354 355 360 8 107 127 277 279 321 245 270 277 287 282 279 275 254 261 256 251 249 250 255 261 245 244 248 247 255 252 241 242 242 247 233 234 238 241 243 250
16 13 7 360 357 352 350 345 342 343 352 47 85 293 283 247 289 277 272 275 273 276 267 278 269 256 247 255 252 249 252 258 253 217 229 245 249 252 256 255 252 253 253 227 235 242 245
14 9 5 355 347 342 338 326 315 307 296 223 269 259 229 277 281 284 280 278 276 273 277 264 259 266 254 252 248 259 267 270 286 260 243 222 252 251 258 253 252 252 252 247 229 231 242
17 15 11 5 359 351 344 336 321 303 283 264 269 255 262 268 289 279 269 279 272 281 269 260 265 266 261 261 254 263 276 280 277 280 260 217 261 269 254 252 252 250 239 246 244 235 230
16 16 15 12 8 2 357 352 345 329 308 289 283 275 267 278 270 272 279 275 274 273 272 261 259 257 257 271 279 276 268 264 276 278 273 238 248 263 267 270 242 249 242 240 241 250 233
6 7 9 10 9 6 2 360 357 348 335 318 304 290 282 279 270 281 282 281 278 277 276 275 268 249 253 271 277 279 280 267 250 252 253 251 227 268 268 265 285 284 240 243 234 243 242
353 354 355 357 358 358 359 357 355 351 345 336 324 310 297 295 241 239 274 289 287 284 276 273 282 276 251 255 263 264 263 269 267 247 232 244 240 283 249 228 258 258 249 245 245 236 231
340 339 339 338 338 340 342 341 338 333 331 328 326 320 312 302 288 259 259 256 242 262 266 269 279 272 256 245 254 263 269 269 287 291 283 263 261 239 241 243 263 260 234 279 250 245 226
321 323 324 324 326 326 325 324 324 323 320 319 316 314 309 304 306 283 285 277 263 257 262 262 286 260 255 246 252 263 271 265 265 284 273 264 234 256 279 263 250 220 243 262 263 240 225
315 316 316 317 319 318 318 318 318 316 313 311 310 307 305 298 294 294 295 286 271 257 252 234 245 236 244 292 254 269 283 245 252 266 254 268 278 278 229 234 254 264 269 280 201 236 196